Date,TemperatureHighF,TemperatureAvgF,TemperatureLowF,DewpointHighF,DewpointAvgF,DewpointLowF,HumidityHigh,HumidityAvg,HumidityLow,PressureMaxIn,PressureMinIn,WindSpeedMaxMPH,WindSpeedAvgMPH,GustSpeedMaxMPH,PrecipitationSumIn
2013-3-1,29.4,26.3,24.1,26.8,21.9,19.4,92,83,78,30.08,29.91,11,1,12,0.01
2013-3-2,26.6,24.3,22.6,21.0,19.8,18.2,87,83,76,30.06,30.01,6,0,10,0.00
2013-3-3,31.1,22.5,13.5,18.3,15.9,10.9,89,76,55,30.03,29.96,15,1,17,0.09
2013-3-4,35.9,22.9,10.8,21.3,15.7,8.5,100,76,46,30.14,30.03,11,0,11,0.02
2013-3-5,36.2,27.1,16.9,26.4,21.4,14.4,93,80,63,30.11,29.80,15,1,15,0.00
2013-3-6,40.1,32.6,25.4,30.9,27.2,22.3,93,81,66,30.18,29.81,12,0,12,0.00
2013-3-7,37.1,31.9,22.9,31.5,26.9,19.6,92,82,66,30.36,30.16,12,0,12,0.00
2013-3-8,44.3,30.5,19.7,30.9,23.7,17.3,92,77,53,30.46,30.36,7,0,7,0.00
2013-3-9,42.9,33.3,20.7,32.7,28.0,19.2,97,82,62,30.39,30.01,12,0,12,0.00
2013-3-10,62.7,46.3,30.6,48.4,38.5,28.8,96,76,54,30.01,29.75,17,1,17,0.00
2013-3-11,54.4,47.8,36.6,48.7,44.0,32.7,97,87,73,29.77,29.41,19,2,19,0.42
2013-3-12,36.6,33.6,27.2,33.1,29.8,24.4,90,86,77,29.88,29.63,16,2,17,0.02
2013-3-13,32.1,28.4,25.1,27.8,22.0,15.1,94,78,59,30.16,29.81,18,2,18,0.04
2013-3-14,25.9,24.4,22.7,15.7,15.2,14.5,74,68,64,30.18,30.15,10,0,11,0.00
2013-3-16,32.2,29.5,24.7,27.9,25.2,21.0,92,84,78,30.01,29.82,10,0,10,0.10
2013-3-17,33.1,26.1,16.9,24.6,17.8,13.1,92,71,54,30.24,30.00,15,1,15,0.03
2013-3-18,34.4,29.4,21.3,33.8,26.6,15.1,100,89,76,30.17,29.52,16,2,17,0.09
2013-3-19,33.7,26.6,22.7,31.9,20.7,16.7,93,78,71,29.90,29.57,22,3,22,0.01
2013-3-20,29.6,24.3,16.4,20.8,16.3,10.1,84,71,60,29.92,29.86,19,2,19,0.00
2013-3-21,32.1,23.5,14.5,24.7,18.6,10.7,90,82,68,29.91,29.83,13,1,16,0.00
2013-3-22,40.1,30.2,25.4,25.0,21.5,18.0,85,71,52,30.00,29.90,15,1,15,0.00
2013-3-23,38.6,28.9,19.7,27.1,22.9,17.5,96,79,60,30.07,29.97,9,0,9,0.00
2013-3-24,36.2,29.1,21.0,28.9,23.6,19.1,95,81,57,30.02,29.60,19,2,19,0.00
2013-3-25,40.6,34.1,29.8,29.3,26.8,24.1,92,75,62,29.87,29.52,16,2,16,0.00
2013-3-26,44.4,36.4,32.2,33.7,29.5,27.3,87,76,60,30.07,29.86,12,1,14,0.01
2013-3-27,47.9,37.5,27.8,32.0,28.1,25.0,90,70,46,30.16,30.07,18,2,18,0.00
2013-3-28,53.4,39.8,28.7,31.0,27.4,23.2,85,63,39,30.22,30.16,13,1,14,0.00
2013-3-29,52.4,39.1,27.9,28.4,24.4,22.2,81,58,32,30.24,30.14,10,0,10,0.00
2013-3-30,55.6,40.0,23.5,30.6,25.4,20.2,92,61,27,30.18,29.89,16,1,16,0.00
2013-3-31,59.9,43.5,29.8,44.8,34.9,26.6,99,75,40,29.89,29.57,15,1,17,0.06